User: anonymous   Login
Location: Greenwich
(51.4790°N, 0.0090°E)
Time: 17:27:28
(UTC+01:00)
Language:

Transit 2A Rocket - Orbit

View from above orbital plane
View from above orbital plane
View from above satellite
View from above satellite

Ground track
Ground track

The orbit data is extracted from the following two-line orbital elements,

1    47U 60007C   24104.20169113  .00001224  00000-0  29071-3 0  9999
2    47  66.6674  20.6311 0224146 359.6209   0.4688 14.43441965336429
Epoch (UTC): 13 April 2024 04:50:26
Eccentricity: 0.0224146
inclination: 66.6674°
perigee height: 587 km
apogee height: 907 km
right ascension of ascending node: 20.6311°
argument of perigee: 359.6209°
revolutions per day: 14.43441965
mean anomaly at epoch: 0.4688°
orbit number at epoch: 33642

The dashed part of the orbit path shows where the satellite is in the earth's shadow,  

DLR